Location: Cisewo
(53.3833°N, 14.9000°E)
Time: 02:28:04
(UTC+00:00)

POLYITAN 1 - Pass Details

Date: 04 October 2021
Orbit: 588 x 611 km, 97.9° (Epoch: 27 October)

Event Time Altitude Azimuth Distance (km) Brightness Sun altitude
Rises 01:29:58 0° 8° (N) 2,855 ? -31.0°
Reaches altitude 10° 01:32:18 10° 359° (N) 1,944 ? -30.8°
Enters shadow 01:33:22 16° 351° (N) 1,565 ? -30.7°
